Meteo pe oră la Bolshie Hutora

Astăzi, 9 Mai, Duminică

Timp Temperatura Precipitaţii Vânt Presiune Umiditate
00:00 +12°C° 0.1 mm 5 m/s 742 mmHg 79%
01:00 +12°C° 0.1 mm 5 m/s 742 mmHg 80%
02:00 +12°C° 0.1 mm 5 m/s 742 mmHg 82%
03:00 +11°C° 0.1 mm 6 m/s 741 mmHg 84%
04:00 +12°C° 0 mm 5 m/s 741 mmHg 85%
05:00 +12°C° 0 mm 5 m/s 741 mmHg 86%
06:00 +12°C° 0 mm 4 m/s 741 mmHg 88%
07:00 +12°C° 0.2 mm 4 m/s 741 mmHg 87%
08:00 +13°C° 0.2 mm 4 m/s 741 mmHg 87%
09:00 +13°C° 0.2 mm 4 m/s 741 mmHg 87%
10:00 +13°C° 0.9 mm 4 m/s 742 mmHg 89%
11:00 +12°C° 0.9 mm 4 m/s 742 mmHg 91%
12:00 +11°C° 0.9 mm 4 m/s 742 mmHg 94%
13:00 +10°C° 0.5 mm 4 m/s 743 mmHg 92%
14:00 +8°C° 0.5 mm 4 m/s 743 mmHg 90%
15:00 +7°C° 0.5 mm 4 m/s 744 mmHg 88%
16:00 +6°C° 0.3 mm 4 m/s 744 mmHg 89%
17:00 +7°C° 0.3 mm 3 m/s 745 mmHg 90%
18:00 +7°C° 0.3 mm 3 m/s 745 mmHg 92%
19:00 +7°C° 0 mm 3 m/s 746 mmHg 93%
20:00 +5°C° 0 mm 3 m/s 746 mmHg 94%
21:00 +5°C° 0 mm 4 m/s 747 mmHg 95%
22:00 +5°C° 0 mm 4 m/s 747 mmHg 95%
23:00 +5°C° 0 mm 3 m/s 748 mmHg 95%

Mâine, 10 Mai, Luni

Timp Temperatura Precipitaţii Vânt Presiune Umiditate
00:00 +5°C° 0 mm 3 m/s 748 mmHg 95%
01:00 +5°C° 0.2 mm 3 m/s 748 mmHg 95%
02:00 +4°C° 0.2 mm 4 m/s 748 mmHg 96%
03:00 +4°C° 0.2 mm 4 m/s 749 mmHg 96%
04:00 +5°C° 0.3 mm 4 m/s 749 mmHg 96%
05:00 +5°C° 0.3 mm 4 m/s 750 mmHg 97%
06:00 +5°C° 0.3 mm 4 m/s 750 mmHg 97%
07:00 +5°C° 0.4 mm 5 m/s 750 mmHg 97%
08:00 +6°C° 0.4 mm 5 m/s 751 mmHg 96%
09:00 +5°C° 0.4 mm 6 m/s 751 mmHg 96%
10:00 +5°C° 0.3 mm 6 m/s 751 mmHg 96%
11:00 +5°C° 0.3 mm 6 m/s 752 mmHg 95%
12:00 +5°C° 0.3 mm 7 m/s 752 mmHg 95%
13:00 +6°C° 0 mm 7 m/s 752 mmHg 93%
14:00 +8°C° 0 mm 7 m/s 753 mmHg 92%
15:00 +8°C° 0 mm 7 m/s 753 mmHg 90%
16:00 +9°C° 0 mm 7 m/s 753 mmHg 90%
17:00 +9°C° 0 mm 7 m/s 753 mmHg 89%
18:00 +9°C° 0 mm 7 m/s 753 mmHg 89%
19:00 +8°C° 0 mm 7 m/s 753 mmHg 90%
20:00 +8°C° 0 mm 7 m/s 754 mmHg 91%
21:00 +6°C° 0 mm 7 m/s 754 mmHg 92%
22:00 +6°C° 0 mm 7 m/s 754 mmHg 92%
23:00 +6°C° 0 mm 7 m/s 754 mmHg 93%

Poimâine, 11 Mai, Marţi

Timp Temperatura Precipitaţii Vânt Presiune Umiditate
00:00 +5°C° 0 mm 7 m/s 754 mmHg 93%
01:00 +5°C° 0 mm 7 m/s 754 mmHg 93%
02:00 +5°C° 0 mm 7 m/s 754 mmHg 93%
03:00 +6°C° 0 mm 7 m/s 754 mmHg 93%
04:00 +6°C° 0 mm 7 m/s 754 mmHg 93%
05:00 +6°C° 0 mm 7 m/s 754 mmHg 92%
06:00 +6°C° 0 mm 7 m/s 754 mmHg 92%
07:00 +8°C° 0.1 mm 6 m/s 754 mmHg 91%
08:00 +8°C° 0.1 mm 6 m/s 755 mmHg 90%
09:00 +9°C° 0.1 mm 6 m/s 755 mmHg 90%
10:00 +11°C° 0 mm 6 m/s 755 mmHg 85%
11:00 +14°C° 0 mm 6 m/s 755 mmHg 80%
12:00 +16°C° 0 mm 7 m/s 755 mmHg 76%
13:00 +17°C° 0 mm 7 m/s 755 mmHg 73%
14:00 +18°C° 0 mm 7 m/s 755 mmHg 71%
15:00 +20°C° 0 mm 7 m/s 755 mmHg 68%
16:00 +20°C° 0.1 mm 7 m/s 755 mmHg 71%
17:00 +18°C° 0.1 mm 7 m/s 754 mmHg 74%
18:00 +19°C° 0.1 mm 6 m/s 754 mmHg 77%
19:00 +17°C° 0.1 mm 6 m/s 754 mmHg 81%
20:00 +15°C° 0.1 mm 5 m/s 755 mmHg 86%
21:00 +14°C° 0.1 mm 5 m/s 755 mmHg 90%
22:00 +14°C° 0.1 mm 4 m/s 755 mmHg 92%
23:00 +13°C° 0.1 mm 3 m/s 755 mmHg 94%

12 Mai, Miercuri

Timp Temperatura Precipitaţii Vânt Presiune Umiditate
00:00 +13°C° 0.1 mm 2 m/s 755 mmHg 96%
01:00 +12°C° 0 mm 3 m/s 754 mmHg 96%
02:00 +12°C° 0 mm 3 m/s 754 mmHg 96%
03:00 +12°C° 0 mm 4 m/s 754 mmHg 96%
04:00 +12°C° 0 mm 4 m/s 754 mmHg 93%
05:00 +13°C° 0 mm 5 m/s 754 mmHg 90%
06:00 +14°C° 0 mm 5 m/s 753 mmHg 87%
07:00 +15°C° 0 mm 5 m/s 754 mmHg 83%
08:00 +15°C° 0 mm 5 m/s 754 mmHg 79%
09:00 +16°C° 0 mm 5 m/s 754 mmHg 76%
10:00 +19°C° 0 mm 5 m/s 754 mmHg 71%
11:00 +20°C° 0 mm 6 m/s 754 mmHg 66%
12:00 +21°C° 0 mm 6 m/s 754 mmHg 62%
13:00 +21°C° 0 mm 6 m/s 754 mmHg 61%
14:00 +22°C° 0 mm 6 m/s 754 mmHg 60%
15:00 +22°C° 0 mm 6 m/s 754 mmHg 59%
16:00 +21°C° 0 mm 5 m/s 754 mmHg 62%
17:00 +20°C° 0 mm 5 m/s 754 mmHg 66%
18:00 +19°C° 0 mm 4 m/s 754 mmHg 70%
19:00 +18°C° 0 mm 4 m/s 754 mmHg 71%
20:00 +17°C° 0 mm 4 m/s 754 mmHg 73%
21:00 +17°C° 0 mm 3 m/s 754 mmHg 74%
22:00 +16°C° 0 mm 3 m/s 754 mmHg 75%
23:00 +15°C° 0 mm 4 m/s 753 mmHg 76%

13 Mai, Joi

Timp Temperatura Precipitaţii Vânt Presiune Umiditate
00:00 +15°C° 0 mm 4 m/s 753 mmHg 77%
01:00 +14°C° 0 mm 4 m/s 753 mmHg 75%
02:00 +14°C° 0 mm 4 m/s 753 mmHg 73%
03:00 +14°C° 0 mm 4 m/s 753 mmHg 72%
04:00 +14°C° 0 mm 5 m/s 753 mmHg 71%
05:00 +14°C° 0 mm 5 m/s 752 mmHg 71%
06:00 +14°C° 0 mm 6 m/s 752 mmHg 71%
07:00 +14°C° 0.1 mm 5 m/s 752 mmHg 73%
08:00 +14°C° 0.1 mm 4 m/s 753 mmHg 76%
09:00 +14°C° 0.1 mm 4 m/s 753 mmHg 78%
10:00 +16°C° 0 mm 5 m/s 752 mmHg 73%
11:00 +17°C° 0 mm 5 m/s 752 mmHg 68%
12:00 +20°C° 0 mm 6 m/s 752 mmHg 63%
13:00 +20°C° 0 mm 6 m/s 752 mmHg 62%
14:00 +21°C° 0 mm 6 m/s 752 mmHg 60%
15:00 +22°C° 0 mm 6 m/s 752 mmHg 59%
16:00 +21°C° 0 mm 6 m/s 752 mmHg 62%
17:00 +21°C° 0 mm 5 m/s 752 mmHg 66%
18:00 +21°C° 0 mm 4 m/s 752 mmHg 69%
19:00 +19°C° 0 mm 4 m/s 752 mmHg 75%
20:00 +18°C° 0 mm 3 m/s 752 mmHg 80%
21:00 +16°C° 0 mm 3 m/s 752 mmHg 86%
22:00 +17°C° 0 mm 3 m/s 752 mmHg 84%
23:00 +17°C° 0 mm 3 m/s 752 mmHg 82%

14 Mai, Vineri

Timp Temperatura Precipitaţii Vânt Presiune Umiditate
00:00 +17°C° 0 mm 4 m/s 752 mmHg 79%
01:00 +17°C° 0 mm 4 m/s 752 mmHg 76%
02:00 +17°C° 0 mm 4 m/s 752 mmHg 74%
03:00 +15°C° 0 mm 4 m/s 752 mmHg 71%
04:00 +15°C° 0 mm 4 m/s 752 mmHg 72%
05:00 +15°C° 0 mm 5 m/s 752 mmHg 74%
06:00 +15°C° 0 mm 5 m/s 751 mmHg 75%
07:00 +16°C° 0 mm 5 m/s 751 mmHg 72%
08:00 +19°C° 0 mm 5 m/s 751 mmHg 68%
09:00 +20°C° 0 mm 6 m/s 751 mmHg 65%
10:00 +21°C° 0 mm 6 m/s 751 mmHg 63%
11:00 +23°C° 0 mm 6 m/s 751 mmHg 60%
12:00 +24°C° 0 mm 7 m/s 751 mmHg 58%
13:00 +24°C° 0 mm 7 m/s 751 mmHg 57%
14:00 +26°C° 0 mm 6 m/s 751 mmHg 56%
15:00 +26°C° 0 mm 6 m/s 751 mmHg 55%
16:00 +24°C° 0 mm 6 m/s 751 mmHg 57%
17:00 +23°C° 0 mm 5 m/s 750 mmHg 60%
18:00 +22°C° 0 mm 5 m/s 750 mmHg 63%
19:00 +21°C° 0 mm 5 m/s 750 mmHg 66%
20:00 +20°C° 0 mm 5 m/s 750 mmHg 69%
21:00 +18°C° 0 mm 4 m/s 750 mmHg 72%
22:00 +18°C° 0 mm 4 m/s 750 mmHg 71%
23:00 +18°C° 0 mm 4 m/s 750 mmHg 69%
Arată mai mult

Formular de consimțământ

Meteoprog și furnizorii noștri de servicii pot stoca și accesa date personale, precum cookies, identificatori de dispozitiv sau alte tehnologii similare pe dispozitivul dumneavoastră și procesa astfel de date pentru a personaliza conținutul și reclamele, dar și pentru a oferi caracteristici de social media și pentru a analiza traficul.

  • Stocarea și/sau accesarea informațiilor pe dispozitivul dumneavoastră

    Cookies, identificatori de dispozitiv sau alte informații pot fi stocate sau accesate pe dispozitiv în scopurile indicate mai sus.

  • Reclame și conținut personalizat, evaluarea reclamelor și a conținutului, informații despre audiențe și dezvoltarea produselor

    Reclamele și conținutul pot fi personalizate pe baza unui profil. Pot fi adăugate date suplimentare pentru a personaliza mai bine reclamele și conținutul. Performanța reclamelor și conținutului poate fi măsurată. Pot fi obținute informații despre utilizatorii care au văzut reclamele și conținutul. Aceste date pot fi utilizate pentru a dezvolta sau îmbunătăți experiența utilizatorilor, sistemele și software-ul.

Dând clic pe ‘Sunt de acord’, permiteți utilizarea cookie-urilor menționate, a identificatorilor de dispozitiv, balizelor web sau altor tehnologii similare. Setările pot fi modificate din browser-ul dispozitivului dumneavoastră.

În anumite scopuri, interesele legitime pot prima asupra consimțământului. Puteți citi mai multe informații în acest sens în Politica privind Confidențialitatea Datelor și Cookie.